SWA1767 KMSY-KBNA

Flight info

Callsign SWA1767
Flight time 1h 7m
Altitude 35000
Route LBY MEI KISTS CHSNE3
Aircraft B738/M-SDE2E3FGHIRWXY/LB1

Departure

Time 2026-05-06 22:07
Airport Louis Armstrong New Orleans International Airport (KMSY)

Arrival

Time 2026-05-06 23:14
Airport Nashville International Airport (KBNA)
Time Latitude Longitude Altitude Speed Heading
2026-05-06 21:43 29.99402 -90.25599 7 ft 0 kts 291°
2026-05-06 21:54 29.99401 -90.25597 7 ft 2 kts 291°
2026-05-06 21:54 29.99396 -90.25579 8 ft 2 kts 288°
2026-05-06 21:54 29.99391 -90.25561 8 ft 2 kts 278°
2026-05-06 21:54 29.99393 -90.25542 8 ft 2 kts 217°
2026-05-06 21:55 29.99404 -90.25537 7 ft 1 kts 185°
2026-05-06 21:55 29.99405 -90.25537 7 ft 0 kts 185°
2026-05-06 21:57 29.99403 -90.25537 7 ft 2 kts 185°
2026-05-06 21:57 29.99359 -90.25541 7 ft 10 kts 181°
2026-05-06 21:57 29.99264 -90.25551 8 ft 16 kts 193°
2026-05-06 21:58 29.99214 -90.25649 7 ft 17 kts 280°
2026-05-06 21:58 29.99281 -90.25792 7 ft 25 kts 309°
2026-05-06 21:58 29.99366 -90.26002 6 ft 33 kts 287°
2026-05-06 21:58 29.99432 -90.26279 10 ft 39 kts 284°
2026-05-06 21:59 29.99511 -90.26608 16 ft 45 kts 284°
2026-05-06 21:59 29.99605 -90.26978 15 ft 51 kts 304°
2026-05-06 21:59 29.99681 -90.27308 11 ft 43 kts 283°
2026-05-06 21:59 29.99746 -90.27598 9 ft 27 kts 269°
2026-05-06 22:00 29.99657 -90.27690 6 ft 4 kts 196°
2026-05-06 22:00 29.99656 -90.27690 6 ft 0 kts 196°
2026-05-06 22:03 29.99648 -90.27693 8 ft 3 kts 196°
2026-05-06 22:04 29.99623 -90.27704 7 ft 5 kts 211°
2026-05-06 22:04 29.99594 -90.27738 6 ft 7 kts 232°
2026-05-06 22:04 29.99583 -90.27763 7 ft 1 kts 272°
2026-05-06 22:04 29.99591 -90.27798 8 ft 9 kts 284°
2026-05-06 22:05 29.99614 -90.27904 12 ft 18 kts 284°
2026-05-06 22:05 29.99677 -90.28062 12 ft 25 kts 301°
2026-05-06 22:05 29.99663 -90.28150 12 ft 9 kts 194°
2026-05-06 22:05 29.99625 -90.28123 12 ft 12 kts 118°
2026-05-06 22:06 29.99623 -90.28096 12 ft 2 kts 45°
2026-05-06 22:06 29.99641 -90.28078 12 ft 0 kts 55°
2026-05-06 22:06 29.99641 -90.28077 12 ft 0 kts 64°
2026-05-06 22:06 29.99639 -90.28057 12 ft 5 kts 103°
2026-05-06 22:07 29.99596 -90.27869 10 ft 62 kts 106°
2026-05-06 22:07 29.99401 -90.27076 14 ft 141 kts 108°
2026-05-06 22:07 29.99100 -90.25755 275 ft 185 kts 108°
2026-05-06 22:07 29.98768 -90.24324 1281 ft 183 kts 110°
2026-05-06 22:08 29.98499 -90.22915 2312 ft 177 kts 109°
2026-05-06 22:08 29.98272 -90.21499 3021 ft 179 kts 109°
2026-05-06 22:08 29.97953 -90.20041 3438 ft 194 kts 110°
2026-05-06 22:08 29.97632 -90.18613 3992 ft 190 kts 108°
2026-05-06 22:09 29.97840 -90.16936 4036 ft 236 kts 63°
2026-05-06 22:09 29.99084 -90.15580 4023 ft 260 kts 22°
2026-05-06 22:09 30.00877 -90.15105 4030 ft 269 kts
2026-05-06 22:09 30.02756 -90.14956 4347 ft 271 kts 359°
2026-05-06 22:10 30.04634 -90.14855 4779 ft 274 kts 358°
2026-05-06 22:10 30.06597 -90.14746 5259 ft 288 kts 359°
2026-05-06 22:10 30.08628 -90.14613 5992 ft 295 kts 359°
2026-05-06 22:10 30.10687 -90.14418 6867 ft 299 kts
2026-05-06 22:11 30.12729 -90.13725 7472 ft 308 kts 24°
2026-05-06 22:11 30.14605 -90.12487 8187 ft 317 kts 28°
2026-05-06 22:11 30.16627 -90.11452 8989 ft 316 kts 13°
2026-05-06 22:11 30.18716 -90.10738 9810 ft 318 kts 12°
2026-05-06 22:12 30.20886 -90.09966 10448 ft 329 kts 14°
2026-05-06 22:12 30.23119 -90.09045 10627 ft 355 kts 17°
2026-05-06 22:12 30.25453 -90.07929 10980 ft 372 kts 20°
2026-05-06 22:12 30.27838 -90.06652 11588 ft 379 kts 22°
2026-05-06 22:13 30.30218 -90.05280 12289 ft 382 kts 24°
2026-05-06 22:13 30.32570 -90.03861 12950 ft 386 kts 24°
2026-05-06 22:13 30.34960 -90.02381 13615 ft 390 kts 25°
2026-05-06 22:13 30.37338 -90.00887 14219 ft 393 kts 25°
2026-05-06 22:14 30.39764 -89.99353 14813 ft 397 kts 25°
2026-05-06 22:14 30.42178 -89.97821 15418 ft 400 kts 24°
2026-05-06 22:14 30.44635 -89.96260 16042 ft 403 kts 24°
2026-05-06 22:14 30.47079 -89.94706 16651 ft 406 kts 24°
2026-05-06 22:15 30.49583 -89.93115 17247 ft 409 kts 23°
2026-05-06 22:15 30.52068 -89.91535 17833 ft 413 kts 23°
2026-05-06 22:15 30.54624 -89.89910 18385 ft 416 kts 22°
2026-05-06 22:15 30.57155 -89.88300 18888 ft 419 kts 22°
2026-05-06 22:16 30.59746 -89.86650 19393 ft 422 kts 22°
2026-05-06 22:16 30.62315 -89.85014 19877 ft 426 kts 22°
2026-05-06 22:16 30.64934 -89.83345 20383 ft 429 kts 22°
2026-05-06 22:16 30.67536 -89.81685 20885 ft 432 kts 22°
2026-05-06 22:17 30.70199 -89.79986 21365 ft 435 kts 21°
2026-05-06 22:17 30.72845 -89.78297 21844 ft 438 kts 21°
2026-05-06 22:17 30.75522 -89.76586 22328 ft 441 kts 21°
2026-05-06 22:17 30.78236 -89.74850 22821 ft 444 kts 21°
2026-05-06 22:18 30.80933 -89.73124 23277 ft 447 kts 21°
2026-05-06 22:18 30.83669 -89.71373 23683 ft 450 kts 21°
2026-05-06 22:18 30.86405 -89.69620 24048 ft 453 kts 21°
2026-05-06 22:18 30.89185 -89.67837 24450 ft 454 kts 21°
2026-05-06 22:19 30.91936 -89.66071 24826 ft 456 kts 21°
2026-05-06 22:19 30.94743 -89.64268 25192 ft 459 kts 21°
2026-05-06 22:19 30.96603 -89.63074 25433 ft 460 kts 21°
2026-05-06 22:19 30.99411 -89.61269 25820 ft 462 kts 21°
2026-05-06 22:20 31.02257 -89.59438 26192 ft 464 kts 21°
2026-05-06 22:20 31.05064 -89.57631 26538 ft 467 kts 21°
2026-05-06 22:20 31.07934 -89.55783 26895 ft 469 kts 21°
2026-05-06 22:20 31.10775 -89.53952 27240 ft 471 kts 21°
2026-05-06 22:21 31.13668 -89.52086 27578 ft 473 kts 21°
2026-05-06 22:21 31.16531 -89.50238 27894 ft 475 kts 21°
2026-05-06 22:21 31.19452 -89.48352 28207 ft 478 kts 21°
2026-05-06 22:21 31.22345 -89.46481 28522 ft 479 kts 21°
2026-05-06 22:22 31.25281 -89.44582 28856 ft 481 kts 21°
2026-05-06 22:22 31.28197 -89.42694 29150 ft 483 kts 21°
2026-05-06 22:22 31.31155 -89.40777 29437 ft 485 kts 21°
2026-05-06 22:22 31.34109 -89.38862 29730 ft 487 kts 21°
2026-05-06 22:23 31.37077 -89.36936 30014 ft 489 kts 21°
2026-05-06 22:23 31.40082 -89.34985 30258 ft 491 kts 21°
2026-05-06 22:23 31.43063 -89.33092 30499 ft 491 kts 19°
2026-05-06 22:23 31.46111 -89.31325 30743 ft 490 kts 18°
2026-05-06 22:24 31.49228 -89.29618 30988 ft 490 kts 17°
2026-05-06 22:24 31.52310 -89.27964 31227 ft 491 kts 17°
2026-05-06 22:24 31.55449 -89.26281 31467 ft 493 kts 17°
2026-05-06 22:24 31.58530 -89.24613 31751 ft 492 kts 17°
2026-05-06 22:25 31.61641 -89.22911 32106 ft 490 kts 18°
2026-05-06 22:25 31.64704 -89.21223 32442 ft 489 kts 18°
2026-05-06 22:25 31.67774 -89.19524 32736 ft 489 kts 18°
2026-05-06 22:25 31.70874 -89.17805 33028 ft 489 kts 18°
2026-05-06 22:26 31.73914 -89.16117 33328 ft 488 kts 18°
2026-05-06 22:26 31.77000 -89.14403 33632 ft 487 kts 18°
2026-05-06 22:26 31.80048 -89.12709 33913 ft 487 kts 18°
2026-05-06 22:26 31.83106 -89.11010 34181 ft 486 kts 18°
2026-05-06 22:27 31.86154 -89.09314 34429 ft 485 kts 18°
2026-05-06 22:27 31.89217 -89.07610 34695 ft 485 kts 18°
2026-05-06 22:27 31.92240 -89.05926 34929 ft 484 kts 17°
2026-05-06 22:27 31.95309 -89.04217 35005 ft 485 kts 17°
2026-05-06 22:28 32.01410 -89.00814 35018 ft 485 kts 17°
2026-05-06 22:28 32.07508 -88.97406 35017 ft 485 kts 17°
2026-05-06 22:29 32.13605 -88.93993 35007 ft 484 kts 17°
2026-05-06 22:29 32.19677 -88.90590 35003 ft 484 kts 17°
2026-05-06 22:30 32.25752 -88.87180 34997 ft 484 kts 17°
2026-05-06 22:30 32.31844 -88.83756 35010 ft 485 kts 17°
2026-05-06 22:31 32.38061 -88.80807 34987 ft 474 kts
2026-05-06 22:31 32.41239 -88.80091 34983 ft 463 kts 356°
2026-05-06 22:31 32.44456 -88.79874 35007 ft 457 kts 353°
2026-05-06 22:32 32.50775 -88.79595 34998 ft 456 kts 352°
2026-05-06 22:32 32.57124 -88.79302 34992 ft 458 kts 353°
2026-05-06 22:33 32.63507 -88.78964 35017 ft 458 kts 353°
2026-05-06 22:33 32.69864 -88.78606 35028 ft 457 kts 353°
2026-05-06 22:34 32.76177 -88.78248 35031 ft 455 kts 352°
2026-05-06 22:34 32.82514 -88.77889 35035 ft 454 kts 352°
2026-05-06 22:35 32.88848 -88.77534 35024 ft 455 kts 352°
2026-05-06 22:35 32.95159 -88.77177 35027 ft 454 kts 352°
2026-05-06 22:36 33.01463 -88.76820 35008 ft 454 kts 351°
2026-05-06 22:36 33.07733 -88.76464 35002 ft 453 kts 351°
2026-05-06 22:37 33.14024 -88.76107 35009 ft 452 kts 351°
2026-05-06 22:37 33.20304 -88.75751 34996 ft 451 kts 351°
2026-05-06 22:38 33.26577 -88.75394 34986 ft 451 kts 351°
2026-05-06 22:38 33.32821 -88.75038 34997 ft 450 kts 350°
2026-05-06 22:39 33.39093 -88.74680 35001 ft 449 kts 350°
2026-05-06 22:39 33.45309 -88.74325 34997 ft 449 kts 350°
2026-05-06 22:40 33.51549 -88.73968 34998 ft 448 kts 350°
2026-05-06 22:40 33.57776 -88.73611 34995 ft 447 kts 350°
2026-05-06 22:41 33.67125 -88.73077 34982 ft 448 kts 350°
2026-05-06 22:42 33.73325 -88.72720 34984 ft 447 kts 350°
2026-05-06 22:42 33.79555 -88.72360 34991 ft 449 kts 350°
2026-05-06 22:43 33.85775 -88.72003 34988 ft 448 kts 350°
2026-05-06 22:43 33.91992 -88.71641 34995 ft 446 kts 350°
2026-05-06 22:44 33.98178 -88.71280 35019 ft 443 kts 350°
2026-05-06 22:44 34.04318 -88.70925 35032 ft 441 kts 350°
2026-05-06 22:45 34.10441 -88.70570 35046 ft 439 kts 349°
2026-05-06 22:45 34.16516 -88.70218 35056 ft 438 kts 349°
2026-05-06 22:46 34.22578 -88.69866 35060 ft 437 kts 349°
2026-05-06 22:46 34.28649 -88.69513 35061 ft 436 kts 349°
2026-05-06 22:47 34.34719 -88.69160 35067 ft 436 kts 349°
2026-05-06 22:47 34.40785 -88.68806 35059 ft 435 kts 349°
2026-05-06 22:48 34.46795 -88.68454 35061 ft 435 kts 349°
2026-05-06 22:48 34.52857 -88.68099 35058 ft 435 kts 349°
2026-05-06 22:49 34.58879 -88.67743 35049 ft 430 kts 349°
2026-05-06 22:49 34.64793 -88.67384 34920 ft 419 kts 349°
2026-05-06 22:49 34.67694 -88.67216 34461 ft 417 kts 349°
2026-05-06 22:50 34.70564 -88.67050 34058 ft 414 kts 349°
2026-05-06 22:50 34.73416 -88.66884 33619 ft 411 kts 349°
2026-05-06 22:50 34.76294 -88.66716 33172 ft 408 kts 350°
2026-05-06 22:50 34.79101 -88.66550 32760 ft 404 kts 350°
2026-05-06 22:51 34.81881 -88.66383 32348 ft 402 kts 351°
2026-05-06 22:51 34.84713 -88.65692 31905 ft 426 kts
2026-05-06 22:51 34.87367 -88.63958 31641 ft 446 kts 26°
2026-05-06 22:51 34.89781 -88.61519 31289 ft 450 kts 30°
2026-05-06 22:52 34.92092 -88.58981 30893 ft 449 kts 32°
2026-05-06 22:52 34.94402 -88.56402 30494 ft 447 kts 32°
2026-05-06 22:52 34.96682 -88.53885 30084 ft 445 kts 31°
2026-05-06 22:52 34.98976 -88.51393 29645 ft 442 kts 31°
2026-05-06 22:53 35.01294 -88.48903 29194 ft 439 kts 31°
2026-05-06 22:53 35.03594 -88.46445 28762 ft 436 kts 31°
2026-05-06 22:53 35.05846 -88.44036 28349 ft 433 kts 31°
2026-05-06 22:53 35.08119 -88.41600 27957 ft 430 kts 31°
2026-05-06 22:54 35.10333 -88.39229 27617 ft 426 kts 31°
2026-05-06 22:54 35.12572 -88.36832 27215 ft 423 kts 32°
2026-05-06 22:54 35.14764 -88.34485 26812 ft 421 kts 32°
2026-05-06 22:54 35.16971 -88.32121 26407 ft 419 kts 32°
2026-05-06 22:55 35.19136 -88.29799 26023 ft 417 kts 32°
2026-05-06 22:55 35.21318 -88.27458 25617 ft 415 kts 33°
2026-05-06 22:55 35.23475 -88.25140 25209 ft 414 kts 33°
2026-05-06 22:55 35.25649 -88.22804 24796 ft 413 kts 33°
2026-05-06 22:56 35.27777 -88.20514 24402 ft 412 kts 33°
2026-05-06 22:56 35.29944 -88.18180 23997 ft 411 kts 34°
2026-05-06 22:56 35.32071 -88.15888 23601 ft 410 kts 34°
2026-05-06 22:56 35.34227 -88.13563 23140 ft 409 kts 34°
2026-05-06 22:57 35.36342 -88.11280 22738 ft 407 kts 34°
2026-05-06 22:57 35.38467 -88.08983 22342 ft 404 kts 34°
2026-05-06 22:57 35.40563 -88.06717 21960 ft 402 kts 34°
2026-05-06 22:57 35.42647 -88.04463 21580 ft 400 kts 34°
2026-05-06 22:58 35.44712 -88.02227 21189 ft 398 kts 35°
2026-05-06 22:58 35.46798 -87.99968 20801 ft 396 kts 35°
2026-05-06 22:58 35.48858 -87.97735 20401 ft 394 kts 35°
2026-05-06 22:58 35.50902 -87.95519 20004 ft 393 kts 35°
2026-05-06 22:59 35.52939 -87.93307 19614 ft 392 kts 35°
2026-05-06 22:59 35.54994 -87.91076 19209 ft 391 kts 35°
2026-05-06 22:59 35.57024 -87.88870 18818 ft 391 kts 35°
2026-05-06 22:59 35.59038 -87.86678 18426 ft 390 kts 36°
2026-05-06 23:00 35.61063 -87.84474 17989 ft 388 kts 36°
2026-05-06 23:00 35.63092 -87.82262 17595 ft 385 kts 36°
2026-05-06 23:00 35.65082 -87.80091 17205 ft 383 kts 36°
2026-05-06 23:00 35.67081 -87.77910 16801 ft 381 kts 36°
2026-05-06 23:01 35.69035 -87.75777 16430 ft 378 kts 36°
2026-05-06 23:01 35.71016 -87.73613 16057 ft 376 kts 36°
2026-05-06 23:01 35.72946 -87.71503 15696 ft 373 kts 36°
2026-05-06 23:01 35.74867 -87.69401 15395 ft 369 kts 37°
2026-05-06 23:02 35.76500 -87.67016 15526 ft 358 kts 57°
2026-05-06 23:02 35.77494 -87.64273 15474 ft 349 kts 66°
2026-05-06 23:02 35.78335 -87.61481 15371 ft 341 kts 68°
2026-05-06 23:02 35.79135 -87.58763 15054 ft 341 kts 68°
2026-05-06 23:03 35.79957 -87.56021 14595 ft 345 kts 67°
2026-05-06 23:03 35.80814 -87.53223 14212 ft 348 kts 67°
2026-05-06 23:03 35.81663 -87.50476 14016 ft 343 kts 67°
2026-05-06 23:03 35.82505 -87.47757 13902 ft 334 kts 66°
2026-05-06 23:04 35.83429 -87.45154 13393 ft 338 kts 61°
2026-05-06 23:04 35.84509 -87.42482 12694 ft 353 kts 60°
2026-05-06 23:04 35.85619 -87.39742 11955 ft 364 kts 61°
2026-05-06 23:04 35.86749 -87.36889 11282 ft 369 kts 64°
2026-05-06 23:05 35.87422 -87.33871 10614 ft 367 kts 86°
2026-05-06 23:05 35.87278 -87.30844 10261 ft 348 kts 102°
2026-05-06 23:05 35.86819 -87.27881 9360 ft 351 kts 105°
2026-05-06 23:05 35.86304 -87.24979 8537 ft 348 kts 106°
2026-05-06 23:06 35.85801 -87.22138 8184 ft 325 kts 106°
2026-05-06 23:06 35.85363 -87.19572 8314 ft 289 kts 106°
2026-05-06 23:06 35.84964 -87.17207 8115 ft 274 kts 107°
2026-05-06 23:06 35.84586 -87.14944 7949 ft 266 kts 107°
2026-05-06 23:07 35.84204 -87.12670 7758 ft 280 kts 107°
2026-05-06 23:07 35.83803 -87.10266 7481 ft 288 kts 106°
2026-05-06 23:07 35.83411 -87.07880 7278 ft 284 kts 106°
2026-05-06 23:07 35.83053 -87.05471 7012 ft 286 kts 97°
2026-05-06 23:08 35.83373 -87.03055 6740 ft 291 kts 69°
2026-05-06 23:08 35.84333 -87.00851 6306 ft 297 kts 58°
2026-05-06 23:08 35.85461 -86.98688 5850 ft 297 kts 57°
2026-05-06 23:08 35.86563 -86.96625 5698 ft 282 kts 57°
2026-05-06 23:09 35.87604 -86.94665 5593 ft 268 kts 58°
2026-05-06 23:09 35.88596 -86.92780 5475 ft 255 kts 58°
2026-05-06 23:09 35.89528 -86.90993 5331 ft 244 kts 58°
2026-05-06 23:09 35.90141 -86.89812 5114 ft 244 kts 57°
2026-05-06 23:10 35.91338 -86.87495 4794 ft 237 kts 60°
2026-05-06 23:10 35.91924 -86.86359 4639 ft 234 kts 60°
2026-05-06 23:10 35.92797 -86.84660 4455 ft 233 kts 60°
2026-05-06 23:10 35.93661 -86.82979 4245 ft 233 kts 61°
2026-05-06 23:11 35.94529 -86.81287 4052 ft 231 kts 60°
2026-05-06 23:11 35.95384 -86.79618 3857 ft 231 kts 61°
2026-05-06 23:11 35.96040 -86.77828 3608 ft 223 kts 85°
2026-05-06 23:11 35.96489 -86.76028 3428 ft 225 kts 61°
2026-05-06 23:12 35.97640 -86.74712 3229 ft 227 kts 30°
2026-05-06 23:12 35.99027 -86.73850 3130 ft 223 kts 26°
2026-05-06 23:12 36.00448 -86.73010 2803 ft 237 kts 26°
2026-05-06 23:12 36.01936 -86.72192 2625 ft 226 kts 20°
2026-05-06 23:13 36.03381 -86.71576 2588 ft 218 kts 18°
2026-05-06 23:13 36.04834 -86.70988 2285 ft 221 kts 18°
2026-05-06 23:13 36.06289 -86.70354 1713 ft 226 kts 21°
2026-05-06 23:13 36.07799 -86.69797 1140 ft 223 kts 12°
2026-05-06 23:14 36.09226 -86.69248 858 ft 205 kts 20°
2026-05-06 23:14 36.10519 -86.68749 619 ft 177 kts 15°
2026-05-06 23:14 36.11554 -86.68332 582 ft 117 kts 30°
2026-05-06 23:14 36.11940 -86.68158 580 ft 17 kts 29°
2026-05-06 23:15 36.11994 -86.68086 581 ft 9 kts 62°
2026-05-06 23:15 36.12009 -86.68044 581 ft 0 kts 66°
2026-05-06 23:15 36.12035 -86.67987 581 ft 17 kts 60°
2026-05-06 23:15 36.12134 -86.67809 584 ft 29 kts 34°
2026-05-06 23:16 36.12323 -86.67722 584 ft 36 kts 15°
2026-05-06 23:16 36.12562 -86.67555 584 ft 44 kts 40°
2026-05-06 23:16 36.12814 -86.67319 580 ft 45 kts 44°
2026-05-06 23:16 36.12921 -86.67191 581 ft 4 kts 66°
2026-05-06 23:17 36.12932 -86.67147 577 ft 0 kts 84°